Klamath Falls, OR

10:58 AM PDT on September 19, 2017 (GMT -0700)
Klamath Falls International

Weather History for KLMT - July, 2013

Change the Weather History Date:

Saturday, July 6, 2013

  Actual Average Record
Temperature  
Mean Temperature 70 °F 64 °F  
Max Temperature 87 °F 82 °F 93 °F (1968)
Min Temperature 52 °F 47 °F 35 °F (1961)
Degree Days  
Heating Degree Days 0 2  
Month to date heating degree days 0 16  
Since 1 June heating degree days 178 233  
Since 1 July heating degree days 0 16  
Cooling Degree Days 5 2  
Month to date cooling degree days 54 9  
Year to date cooling degree days 100 21  
Since 1 June cooling degree days 100 20  
Growing Degree Days 20 (Base 50)    
Moisture  
Dew Point 44 °F    
Average Humidity 43    
Maximum Humidity 77    
Minimum Humidity 18    
Precipitation  
Precipitation 0.00 in 0.02 in 0.05 in (1982)
Month to date precipitation T 0.16  
Year to date precipitation 4.55 8.99  
Sea Level Pressure  
Sea Level Pressure 29.77 in    
Wind  
Wind Speed 6 mph (NNW)    
Max Wind Speed 22 mph    
Max Gust Speed 26 mph    
Visibility 10 miles    
Events      
T = Trace of Precipitation, MM = Missing Value Source: NWS Daily Summary

Daily Weather History Graph

Daily Weather History Graph

Search for Another Location

Airport or City:

Trip Planner

Search our weather history database for the weather conditions in past years. The results will help you decide how hot, cold, wet, or windy it might be!

Date:

Astronomy

Jul. 06, 2013 Rise Set
Actual Time 5:37 AM PDT 8:45 PM PDT
Civil Twilight 5:03 AM PDT 9:19 PM PDT
Nautical Twilight 4:19 AM PDT 10:03 PM PDT
Astronomical Twilight 3:27 AM PDT 10:55 PM PDT
Moon 4:28 AM PDT (7/6) 7:29 PM PDT (7/6)
Length of Visible Light 16h 15m
Length of Day
15h 07m
Waning Crescent, 2% of the Moon is Illuminated
Jul 6
Waning Crescent
Jul 8
New
Jul 15
First Quarter
Jul 22
Full
Jul 29
Last Quarter

Hourly Weather History & Observations

Time (PDT) Temp. Dew Point Humidity Pressure Visibility Wind Dir Wind Speed Gust Speed Precip Events Conditions
12:53 AM 64.0 °F 48.9 °F 58% 29.79 in 10.0 mi NNW 9.2 mph - N/A   Clear
1:53 AM 57.9 °F 48.0 °F 70% 29.80 in 10.0 mi WNW 5.8 mph - N/A   Clear
2:53 AM 55.9 °F 48.9 °F 77% 29.81 in 10.0 mi Calm Calm - N/A   Clear
3:53 AM 59.0 °F 46.9 °F 64% 29.79 in 10.0 mi North 3.5 mph - N/A   Clear
4:53 AM 59.0 °F 48.0 °F 67% 29.79 in 10.0 mi North 5.8 mph - N/A   Clear
5:53 AM 55.0 °F 46.9 °F 74% 29.81 in 10.0 mi North 3.5 mph - N/A   Clear
6:53 AM 59.0 °F 48.0 °F 67% 29.81 in 10.0 mi NNE 4.6 mph - N/A   Partly Cloudy
7:53 AM 64.0 °F 45.0 °F 50% 29.80 in 10.0 mi North 4.6 mph - N/A   Clear
8:53 AM 66.9 °F 44.1 °F 44% 29.80 in 10.0 mi NNW 6.9 mph - N/A   Clear
9:53 AM 71.1 °F 44.1 °F 38% 29.79 in 10.0 mi Variable 5.8 mph - N/A   Clear
10:53 AM 73.9 °F 42.1 °F 32% 29.78 in 10.0 mi Calm Calm - N/A   Clear
11:53 AM 77.0 °F 43.0 °F 30% 29.77 in 10.0 mi Variable 3.5 mph - N/A   Clear
12:53 PM 80.1 °F 39.9 °F 24% 29.76 in 10.0 mi Variable 4.6 mph - N/A   Clear
1:53 PM 84.0 °F 37.0 °F 19% 29.75 in 10.0 mi SE 4.6 mph - N/A   Clear
2:53 PM 84.0 °F 37.0 °F 19% 29.74 in 10.0 mi Variable 6.9 mph - N/A   Clear
3:53 PM 84.9 °F 39.9 °F 20% 29.71 in 10.0 mi ESE 5.8 mph - N/A   Clear
4:53 PM 86.0 °F 37.0 °F 18% 29.70 in 10.0 mi Calm Calm - N/A   Clear
5:51 PM 86.0 °F 42.8 °F 22% 29.83 in 10.0 mi NW 18.4 mph - N/A   Clear
5:53 PM 86.0 °F 43.0 °F 22% 29.70 in 10.0 mi NNW 18.4 mph - N/A   Clear
6:53 PM 82.9 °F 42.1 °F 24% 29.70 in 10.0 mi NW 20.7 mph - N/A   Clear
7:53 PM 79.0 °F 44.1 °F 29% 29.71 in 10.0 mi NNW 16.1 mph - N/A   Clear
8:53 PM 75.9 °F 44.1 °F 32% 29.73 in 10.0 mi NW 11.5 mph - N/A   Clear
9:53 PM 69.1 °F 48.0 °F 47% 29.77 in 10.0 mi West 8.1 mph - N/A   Partly Cloudy
10:53 PM 68.0 °F 48.0 °F 49% 29.78 in 10.0 mi Calm Calm - N/A   Scattered Clouds
11:53 PM 61.0 °F 51.1 °F 70% 29.80 in 10.0 mi Calm Calm - N/A   Clear